Tracking 29892 objects as of 21-Nov-2024
HD Live streaming from Space Station
objects crossing your sky now

CZ-6A DEB

Track CZ-6A DEB now!
10-day predictions


NORAD ID: 54964
Int'l Code: 2022-151TD
Perigee: 834.3 km
Apogee: 922.0 km
Inclination: 98.8 °
Period: 102.4 minutes
Semi major axis: 7249 km
RCS: Unknown
Launch date: November 11, 2022
Source: People's Republic of China (PRC)
Launch site: Taiyaun Space Center, China (TSC)

Note: This is SATELLITE DEBRIS
Your satellite tracking list
Your tracking list is empty




NASA's NSSDC Master Catalog

Two Line Element Set (TLE):
1 54964U 22151TD  24325.42437734  .00000591  00000-0  37641-3 0  9998
2 54964  98.8460 322.9125 0060495 174.7197 185.4622 14.06612123103715
Source of the keplerian elements: AFSPC